Regional Weather Roundup
Issued by NWS

Home | Current Version | Previous Version | Text Only | Print | Product List | Glossary On
Versions: 1 2 3 4 5 6 7 8 9 10 11 12 13 14 15 16 17 18 19 20 21 22 23 24 25 26 27 28 29 30 31 32 33 34 35 36 37 38 39 40 41 42 43 44 45 46 47 48 49
000
ASUS42 KKEY 291110
RWRKEY

FLORIDA REGIONAL WEATHER ROUNDUP FOR THE FLORIDA KEYS
NATIONAL WEATHER SERVICE KEY WEST FLORIDA
700 AM EDT FRI AUG 29 2014

...SOUTH FLORIDA AND THE KEYS...

CITY           SKY/WX    TMP DP  RH WIND       PRES   REMARKS
FORT MYERS     CLEAR     77  76  96 SE5       30.00R
SW REGIONAL AP CLEAR     76  75  97 E3        30.01R
NAPLES         CLEAR     80  77  90 SE7       30.00R
MIAMI          MOCLDY    84  77  79 SE5       30.02R HX  94
WEST KENDALL   CLEAR     78  74  87 CALM      30.01S
HOMESTEAD      CLEAR     80  77  89 E3        30.01R
MARATHON       PTCLDY    85  78  80 SE8       30.00R HX  96
BOCA CHICA NAS PTCLDY    84  76  76 SE8       29.99R HX  93
KEY WEST INTL  PTCLDY    85  75  72 SE9       30.00R HX  93

...INTERNATIONAL WEATHER...

CITY           SKY/WX    TMP DP  RH WIND       PRES   REMARKS
NASSAU BAHAMAS PTCLDY    82  75  78 SE9       30.04R
CANCUN MEXICO  PTCLDY    82  75  78 SE10      29.90S
COZUMEL MEXICO PTCLDY    72  72 100 CALM      29.90R

ADJACENT COASTAL WATERS...

STATION/POSITION TIME  SKY/WX   TEMP    WIND        PRES    WAVE
                                AIR SEA DIR/SP/G            HT/PER
                 (UTC)          (F)     (DEG/KT/KT) (MB)    (FT/S)
PULASKI SHOAL LI 1100            85     140/ 10/ 11 1015.3R
SAND KEY         1100            85     130/ 12/ 14 1015.6R
SOMBRERO KEY     1100            85     130/ 14/ 16 1016.6R
LONG KEY         1000            85 87  130/ 10/ 12 1016.4R
MOLASSES REEF    1100            85 87  150/ 11/ 12 1016.1R
FOWEY ROCKS      1100            85 86  130/ 12/ 12 1016.5S
Buoy 42080       NOT AVBL

$$


USA.gov is the U.S. government's official web portal to all federal, state and local government web resources and services.